Weather in Lukovnikovo

Russia / Tver Oblast     56°39′25″N   34°21′27″E
temp.,
°C
wind,
m/s
gust,
m/s
humid.,
%
clouds,
%
prec.,
mm/h
press.,
hPa
HPBL,
m
12 april, mon
mon1200:00+7ssw25845 0.0 103079
03:00+6s25855 0.0 103279
06:00+5sse26865 0.0 1032109
09:00+10sse39661 0.0 1032353
12:00+14se584699 0.0 10301120
15:00+14se5843100 0.0 10291165
18:00+11se51056100 0.0 1027743
21:00+9se41170100 0.0 1027499
13 april, tue
tue1300:00+8se31085100 0.0 1026313
03:00+7se2796100 0.0 1025198
06:00+7se2497100 0.0 1024110
09:00+10se2386100 0.0 1023171
12:00+14s3468100 0.0 1022606
15:00+15s3562100 0.0 1022887
18:00+15sse2472100 0.0 1021107
21:00+11se278593 0.3 1021154
14 april, wed
wed1400:00+11s267585 0.0 1020115
03:00+10sse2880100 0.0 1019169
06:00+9sse388299 0.0 1019169
09:00+11s5137283 0.0 1018662
12:00+16s5106077 0.1 10181316
15:00+17ssw585581 0.4 10171570
18:00+15ssw256794 0.9 1017445
21:00+11wnw1186100 1.5 101815
15 april, thu
thu1500:00+9ne3696100 0.1 1018150
03:00+7nne3798100 0.4 1018233
06:00+7ne3797100 0.3 1018285
09:00+7ne3897100 0.5 1019340
12:00+7ne2697100 1.3 1019258
15:00+8nne3796100 2.8 1019329
18:00+8nne41096100 0.8 1018453
21:00+7nne41096100 1.7 1019496
16 april, fri
fri1600:00+5nne41097100 0.9 1020471
03:00+5nne41096100 2.4 1020490
06:00+4nne51296100 1.9 1020566
09:00+4ne51296100 2.3 1022643
12:00+5ne51286100 0.0 1024792
15:00+9ne6105761 0.1 10241209
18:00+8ne611580 0.0 10251181
21:00+5ne513650 0.0 1028835